Location: Newark
(42.0333°N, 13.0667°E)
Time: 03:46:50
(UTC+00:00)

ISS - Pass Details

Date: 20 November 2019
Orbit: 411 x 421 km, 51.6° (Epoch: 06 December)

Event Time Altitude Azimuth Distance (km) Brightness Sun altitude
Rises 17:24:40 0° 204° (SSW) 2,341 0.5 -18.7°
Reaches altitude 10° 17:27:00 10° 190° (S) 1,485 -0.8 -19.2°
Enters shadow 17:28:38 20° 164° (SSE) 1,035 -1.9 -19.5°
